Previsão horária em Abbasanta

Hoje, 14 Abril, Quarta-feira

Tempo Temperatura Precipitação Vento Pressão Humidade
00:00 +6°C° 0 mm 1 m/s 735 mmHg 79%
01:00 +6°C° 0 mm 1 m/s 735 mmHg 80%
02:00 +6°C° 0 mm 1 m/s 735 mmHg 79%
03:00 +6°C° 0 mm 1 m/s 735 mmHg 79%
04:00 +6°C° 0 mm 1 m/s 734 mmHg 79%
05:00 +7°C° 0 mm 1 m/s 734 mmHg 77%
06:00 +7°C° 0 mm 1 m/s 735 mmHg 75%
07:00 +7°C° 0 mm 1 m/s 735 mmHg 71%
08:00 +10°C° 0 mm 1 m/s 735 mmHg 62%
09:00 +12°C° 0 mm 1 m/s 735 mmHg 54%
10:00 +14°C° 0 mm 1 m/s 734 mmHg 45%
11:00 +15°C° 0 mm 2 m/s 734 mmHg 44%
12:00 +16°C° 0 mm 2 m/s 734 mmHg 43%
13:00 +17°C° 0 mm 3 m/s 734 mmHg 40%
14:00 +16°C° 0 mm 3 m/s 734 mmHg 43%
15:00 +16°C° 0 mm 3 m/s 734 mmHg 47%
16:00 +14°C° 0 mm 3 m/s 733 mmHg 51%
17:00 +13°C° 0 mm 2 m/s 733 mmHg 59%
18:00 +10°C° 0 mm 2 m/s 733 mmHg 68%
19:00 +9°C° 0 mm 1 m/s 734 mmHg 76%
20:00 +9°C° 0 mm 1 m/s 734 mmHg 79%
21:00 +8°C° 0 mm 1 m/s 734 mmHg 81%
22:00 +7°C° 0 mm 1 m/s 734 mmHg 83%
23:00 +7°C° 0 mm 1 m/s 734 mmHg 85%

Amanhã, 15 Abril, Quinta-feira

Tempo Temperatura Precipitação Vento Pressão Humidade
00:00 +7°C° 0 mm 1 m/s 734 mmHg 86%
01:00 +7°C° 0 mm 1 m/s 734 mmHg 88%
02:00 +6°C° 0 mm 1 m/s 734 mmHg 88%
03:00 +6°C° 0 mm 1 m/s 733 mmHg 88%
04:00 +6°C° 0 mm 1 m/s 733 mmHg 89%
05:00 +7°C° 0 mm 1 m/s 733 mmHg 85%
06:00 +7°C° 0 mm 1 m/s 733 mmHg 82%
07:00 +8°C° 0 mm 1 m/s 733 mmHg 78%
08:00 +10°C° 0 mm 1 m/s 733 mmHg 68%
09:00 +12°C° 0 mm 1 m/s 733 mmHg 58%
10:00 +14°C° 0 mm 1 m/s 733 mmHg 48%
11:00 +15°C° 0 mm 1 m/s 733 mmHg 45%
12:00 +16°C° 0 mm 2 m/s 733 mmHg 42%
13:00 +17°C° 0 mm 2 m/s 732 mmHg 40%
14:00 +16°C° 0 mm 2 m/s 732 mmHg 43%
15:00 +16°C° 0 mm 3 m/s 731 mmHg 46%
16:00 +14°C° 0 mm 3 m/s 731 mmHg 50%
17:00 +14°C° 0 mm 2 m/s 731 mmHg 57%
18:00 +12°C° 0 mm 2 m/s 731 mmHg 65%
19:00 +11°C° 0 mm 1 m/s 731 mmHg 73%
20:00 +10°C° 0 mm 1 m/s 731 mmHg 74%
21:00 +10°C° 0 mm 1 m/s 731 mmHg 76%
22:00 +10°C° 0 mm 1 m/s 732 mmHg 78%
23:00 +9°C° 0 mm 1 m/s 731 mmHg 80%

Depois de amanhã, 16 Abril, Sexta-feira

Tempo Temperatura Precipitação Vento Pressão Humidade
00:00 +8°C° 0 mm 2 m/s 730 mmHg 83%
01:00 +7°C° 0 mm 2 m/s 730 mmHg 85%
02:00 +7°C° 0 mm 2 m/s 730 mmHg 85%
03:00 +7°C° 0 mm 2 m/s 729 mmHg 84%
04:00 +7°C° 0 mm 2 m/s 729 mmHg 84%
05:00 +7°C° 0.1 mm 2 m/s 729 mmHg 83%
06:00 +8°C° 0.1 mm 2 m/s 729 mmHg 82%
07:00 +8°C° 0.1 mm 2 m/s 729 mmHg 81%
08:00 +9°C° 0.3 mm 2 m/s 729 mmHg 81%
09:00 +9°C° 0.3 mm 2 m/s 729 mmHg 81%
10:00 +10°C° 0.3 mm 2 m/s 729 mmHg 81%
11:00 +10°C° 0.4 mm 2 m/s 729 mmHg 81%
12:00 +12°C° 0.4 mm 2 m/s 728 mmHg 81%
13:00 +12°C° 0.4 mm 2 m/s 728 mmHg 81%
14:00 +10°C° 0.6 mm 2 m/s 728 mmHg 84%
15:00 +10°C° 0.6 mm 2 m/s 728 mmHg 88%
16:00 +10°C° 0.6 mm 1 m/s 728 mmHg 91%
17:00 +10°C° 0.5 mm 1 m/s 728 mmHg 92%
18:00 +10°C° 0.5 mm 1 m/s 728 mmHg 93%
19:00 +10°C° 0.5 mm 1 m/s 728 mmHg 94%
20:00 +9°C° 0.2 mm 1 m/s 728 mmHg 94%
21:00 +9°C° 0.2 mm 1 m/s 729 mmHg 93%
22:00 +9°C° 0.2 mm 1 m/s 729 mmHg 93%
23:00 +9°C° 0.1 mm 1 m/s 729 mmHg 93%

17 Abril, Sábado

Tempo Temperatura Precipitação Vento Pressão Humidade
00:00 +8°C° 0.1 mm 1 m/s 728 mmHg 93%
01:00 +8°C° 0.1 mm 1 m/s 728 mmHg 93%
02:00 +8°C° 0.1 mm 1 m/s 728 mmHg 92%
03:00 +8°C° 0.1 mm 1 m/s 728 mmHg 92%
04:00 +8°C° 0.1 mm 1 m/s 728 mmHg 91%
05:00 +8°C° 0.1 mm 1 m/s 728 mmHg 90%
06:00 +8°C° 0.1 mm 1 m/s 728 mmHg 89%
07:00 +9°C° 0.1 mm 1 m/s 728 mmHg 88%
08:00 +9°C° 0.6 mm 1 m/s 728 mmHg 85%
09:00 +10°C° 0.6 mm 1 m/s 728 mmHg 82%
10:00 +10°C° 0.6 mm 1 m/s 728 mmHg 79%
11:00 +10°C° 0.4 mm 1 m/s 728 mmHg 78%
12:00 +10°C° 0.4 mm 1 m/s 728 mmHg 78%
13:00 +10°C° 0.4 mm 1 m/s 728 mmHg 78%
14:00 +11°C° 0.2 mm 1 m/s 728 mmHg 78%
15:00 +11°C° 0.2 mm 1 m/s 728 mmHg 78%
16:00 +10°C° 0.2 mm 2 m/s 728 mmHg 79%
17:00 +9°C° 0.2 mm 2 m/s 728 mmHg 82%
18:00 +8°C° 0.2 mm 2 m/s 728 mmHg 85%
19:00 +7°C° 0.2 mm 2 m/s 728 mmHg 88%
20:00 +8°C° 0 mm 1 m/s 729 mmHg 88%
21:00 +8°C° 0 mm 1 m/s 729 mmHg 88%
22:00 +7°C° 0 mm 1 m/s 729 mmHg 89%
23:00 +7°C° 0 mm 1 m/s 729 mmHg 88%

18 Abril, Domingo

Tempo Temperatura Precipitação Vento Pressão Humidade
00:00 +7°C° 0 mm 1 m/s 729 mmHg 88%
01:00 +7°C° 0 mm 1 m/s 729 mmHg 88%
02:00 +7°C° 0.1 mm 1 m/s 729 mmHg 89%
03:00 +7°C° 0.1 mm 1 m/s 729 mmHg 89%
04:00 +7°C° 0.1 mm 1 m/s 729 mmHg 89%
05:00 +7°C° 0.1 mm 2 m/s 729 mmHg 89%
06:00 +7°C° 0.1 mm 2 m/s 729 mmHg 88%
07:00 +7°C° 0.1 mm 2 m/s 730 mmHg 87%
08:00 +9°C° 0 mm 2 m/s 730 mmHg 76%
09:00 +12°C° 0 mm 2 m/s 730 mmHg 65%
10:00 +13°C° 0 mm 2 m/s 731 mmHg 54%
11:00 +13°C° 0.2 mm 2 m/s 731 mmHg 55%
12:00 +12°C° 0.2 mm 3 m/s 731 mmHg 57%
13:00 +12°C° 0.2 mm 4 m/s 731 mmHg 59%
14:00 +12°C° 0.3 mm 4 m/s 731 mmHg 61%
15:00 +12°C° 0.3 mm 4 m/s 731 mmHg 62%
16:00 +12°C° 0.3 mm 4 m/s 731 mmHg 64%
17:00 +11°C° 0.1 mm 3 m/s 731 mmHg 70%
18:00 +9°C° 0.1 mm 3 m/s 731 mmHg 75%
19:00 +8°C° 0.1 mm 2 m/s 731 mmHg 81%
20:00 +7°C° 0 mm 2 m/s 732 mmHg 83%
21:00 +6°C° 0 mm 2 m/s 732 mmHg 85%
22:00 +6°C° 0 mm 2 m/s 733 mmHg 87%
23:00 +7°C° 0 mm 1 m/s 733 mmHg 88%

19 Abril, Segunda-feira

Tempo Temperatura Precipitação Vento Pressão Humidade
00:00 +6°C° 0 mm 1 m/s 733 mmHg 89%
01:00 +6°C° 0 mm 1 m/s 733 mmHg 90%
02:00 +6°C° 0 mm 1 m/s 732 mmHg 91%
03:00 +6°C° 0 mm 1 m/s 732 mmHg 91%
04:00 +6°C° 0 mm 1 m/s 732 mmHg 91%
05:00 +7°C° 0 mm 1 m/s 732 mmHg 90%
06:00 +8°C° 0 mm 1 m/s 732 mmHg 88%
07:00 +8°C° 0 mm 1 m/s 732 mmHg 87%
08:00 +9°C° 0.3 mm 2 m/s 732 mmHg 85%
09:00 +10°C° 0.3 mm 4 m/s 732 mmHg 83%
10:00 +10°C° 0.3 mm 5 m/s 732 mmHg 81%
11:00 +12°C° 0.4 mm 5 m/s 732 mmHg 78%
12:00 +11°C° 0.4 mm 6 m/s 731 mmHg 74%
13:00 +13°C° 0.4 mm 6 m/s 731 mmHg 71%
14:00 +13°C° 0.2 mm 6 m/s 731 mmHg 70%
15:00 +13°C° 0.2 mm 6 m/s 730 mmHg 68%
16:00 +13°C° 0.2 mm 6 m/s 730 mmHg 66%
17:00 +12°C° 0.1 mm 5 m/s 730 mmHg 74%
18:00 +10°C° 0.1 mm 4 m/s 730 mmHg 81%
19:00 +9°C° 0.1 mm 3 m/s 730 mmHg 88%
20:00 +9°C° 0.1 mm 2 m/s 730 mmHg 90%
21:00 +9°C° 0.1 mm 2 m/s 730 mmHg 91%
22:00 +8°C° 0.1 mm 2 m/s 730 mmHg 92%
23:00 +8°C° 0 mm 2 m/s 729 mmHg 91%
Mostrar mais

Necessitamos do seu Consentimento

A Meteoprog e os seus Fornecedores de Serviços podem armazenar e aceder a dados pessoais como cookies, identificadores do dispositivo ou outras tecnologias semelhantes existentes no seu dispositivo e processar estes dados para personalizar conteúdos e anúncios, assim como funcionalidades nas redes sociais e análise de tráfego.

  • Armazenar e/ou aceder a informações no seu dispositivo

    Os cookies, identificadores do dispositivo ou outras informações podem ser armazenados ou acedidos no seu dispositivo, para os fins acima indicados.

  • Anúncios e conteúdos personalizados, medição de anúncios e conteúdos, dados sobre o público-alvo e desenvolvimento de produtos

    Os anúncios e os conteúdos podem ser personalizados com base num perfil. Podem ser adicionados dados adicionais para uma maior personalização dos anúncios e dos conteúdos. A eficácia dos anúncios e dos conteúdos pode ser medida. Podem ser obtidas informações sobre o público que visualizou os anúncios e os conteúdos. Estes dados podem ser usados para desenvolver ou melhorar sistemas, softwares ou a experiência do utilizador.

Ao clicar em "Eu concordo”, permitirá o uso de cookies, identificadores do dispositivo e web beacons mencionados ou outras tecnologias semelhantes. As configurações do navegador do seu dispositivo podem ser alteradas.

Para certos fins, podem ser invocados interesses legítimos ao invés de consentimento. Pode ler mais informação sobre este assunto na nossa Política de Privacidade e Cookies.